STARLINK-32326, 61674

Orbit data source: Space-Track

STARLINK-32326, 61674 is a payload satellite owned by SpaceX/Seattle (US) in LEO that was launched on Sat, 26 Oct 2024 UTC via an FALCON 9 launch vehicle from the Air Force Eastern Test Range (AFETR). Payload-class satellites include a variety of spacecraft equipped with specific instruments for various scientific and technological missions. These include communications satellites like Starlink; space stations such as the ISS; scientific satellites like the Hubble; Earth observation satellites from companies like Planet Labs, Umbra, and HawkEye 360; GPS; miniature CubeSats for education and research; and military/defense satellites.

Loading next visibility...
Identifier
61674, 2024-193P
Orbit
LEO
Country
Flag of USUS
Related business
Manufacturer
SpaceX/Seattle
Mission
Operational Commercial Communications
Bus & Motor
STARLINK V2M, Unknown motor
Mass
730 kg wet, ~700 kg dry
Launch date (UTC)
2024-10-26 (1 year ago)
Launch vehicle
FALCON 9
Launch site
Air Force Eastern Test Range (AFETR)
Object type
Payload
Rocket body
Debris
Shape & HBR
Box + 2 Pan, 17.7 m
Radar Cross Section
33.884 m², Large (>1 m²)

Expand to show TLE details & history
Last TLE update: 21 hours ago

TLE from 21 hours ago
0 STARLINK-32326
1 61674U 24193P   26035.01575319  .00000635  00000-0  33584-4 0  9991
2 61674  53.1585 247.2304 0001376  96.4566 263.6592 15.30195856 71372
Epoch: 2026-02-04T00:22Z
TLE epoch observation values (Epoch: 2026-02-04T00:22:41.075Z)
Latitude
0.00002°
Longitude
107.37087°
Altitude
476.231 km
Speed
7.629 km/s
True Right ascension
16h 28m 55s
True Declination
0° 00' 00"
Sunlit
Object was in daylight at epoch
Visualization orbit readout
Latitude
Unknown
Longitude
Unknown
Altitude
Unknown
Speed
Unknown
Apparent Right ascension
Unknown
Apparent Declination
Unknown
Sunlit
N/A
Visualization observer readout
Local Sidereal Time
23:26:09
Azimuth
Unknown
Elevation
Unknown
Doppler factor
Unknown
Orbital elements
Apogee altitude
476.427 km
Perigee altitude
474.541 km
Semi-major axis
6,853.621 km
Eccentricity
0.00014
Inclination
53.1585°
RAAN
247.2304°
Arg. of periapsis
96.4566°
True anomaly
263.64353°
Mean anomaly
263.6592°
Eccentric anomaly
263.65136°
Mean motion
3.82528 °/min
Orbital period
94.11 mins
BSTAR
0.000033584
Loading maneuver chart data...
Computing Atmospheric mass density...
Loading historical data...
Loading historical data...
Loading historical data...
Loading historical data...
Loading historical data...
Loading historical data...
Loading historical data...

Documentation

Showing up to 5 results
|